DateTimeUTC,F1_A11,F1_S11,BsB_S11,BsG_S11,BsR_S11,BbsB_S11,BbsG_S11,BbsR_S11,BaB_A11,BaG_A11,BaR_A11,Tu_S11,T_S11,Uu_S11,U_S11,P_S11,T1_A11
2021-11-03T03:00:00Z,00000200,21000000,,,,,,,0000.01,0000.26,0000.28,18.9,25.7,00.6,00.4,0640.1,31.1
2021-11-03T03:01:00Z,00000200,21000000,,,,,,,-000.05,-000.20,-000.34,18.9,25.7,00.6,00.4,0640.1,31.1
2021-11-03T03:02:00Z,00000200,21000000,,,,,,,-000.20,0000.05,0000.20,18.8,25.7,00.6,00.4,0640.1,31.1
2021-11-03T03:03:00Z,00000200,61000000,,,,,,,0000.34,0000.42,0000.07,18.8,25.7,00.6,00.4,0640.1,31.1
2021-11-03T03:04:00Z,00000200,41000000,-000.27,0000.62,0000.21,0000.13,0000.00,0000.07,0000.46,0000.30,0000.23,18.8,25.4,00.9,00.6,0640.9,31.1
2021-11-03T03:05:00Z,00000200,01000000,0000.72,0000.18,-000.17,0000.09,0000.00,-000.16,0000.33,0000.04,0000.40,18.9,25.4,01.0,00.7,0641.0,31.1
2021-11-03T03:06:00Z,00000200,01000000,-000.28,0000.38,0000.26,0000.61,-000.17,-000.02,-000.02,0000.32,-000.01,19.0,25.4,01.0,00.7,0640.9,31.1
2021-11-03T03:07:00Z,00000200,01000000,0000.05,0000.14,0000.29,0000.42,-000.14,0000.03,0000.39,0000.35,0000.39,19.1,25.5,01.1,00.7,0640.9,31.1
2021-11-03T03:08:00Z,00000200,01000000,0000.14,-000.12,0000.34,0000.69,0000.11,0000.54,0000.29,0000.35,0000.37,19.2,25.5,01.1,00.7,0640.9,31.2
2021-11-03T03:09:00Z,00000200,01000000,-000.02,0000.42,0000.05,-000.12,-000.15,0000.31,0000.09,0000.11,-000.24,19.3,25.6,01.1,00.7,0640.9,31.2
2021-11-03T03:10:00Z,00000200,01000000,0000.39,0000.25,0000.12,-000.28,-000.17,0000.37,0000.33,0000.06,0000.64,19.4,25.6,01.1,00.7,0640.9,31.2
2021-11-03T03:11:00Z,00000200,01000000,-000.21,0000.12,0000.04,0000.30,-000.11,0000.07,-000.20,-000.02,-000.26,19.4,25.6,01.0,00.7,0640.9,31.2
2021-11-03T03:12:00Z,00000200,01000000,-000.39,0000.52,0000.30,-000.59,-000.12,0000.33,0000.51,0000.24,0000.22,19.3,25.6,01.0,00.7,0640.9,31.2
2021-11-03T03:13:00Z,00000200,01000000,-000.90,0000.48,0000.54,0000.45,0000.05,0000.35,0000.40,0000.26,0000.33,19.3,25.6,01.1,00.7,0640.9,31.2
2021-11-03T03:14:00Z,00000200,01000000,0000.26,0000.41,0000.28,0000.30,-000.05,0000.65,0000.08,0000.47,0000.08,19.2,25.6,01.0,00.7,0640.9,31.1
2021-11-03T03:15:00Z,00000200,01000000,0000.25,0000.23,-000.03,0000.33,0000.02,0000.30,0000.06,0000.36,-000.12,19.2,25.5,01.2,00.8,0640.8,31.1
2021-11-03T03:16:00Z,00000200,01000000,0000.45,0000.20,-000.36,0000.22,-000.06,0000.13,0000.37,-000.05,0000.12,19.1,25.5,01.2,00.8,0640.9,31.1
2021-11-03T03:17:00Z,00000200,01000000,0000.54,0000.30,0000.19,-000.06,-000.30,0000.50,0000.11,0000.10,0000.49,19.1,25.5,01.2,00.8,0640.8,31.1
2021-11-03T03:18:00Z,00000200,01000000,0000.62,0000.36,0000.23,0000.73,0000.07,0000.60,0000.51,0000.33,-000.02,19.0,25.4,01.3,00.9,0640.8,31.1
2021-11-03T03:19:00Z,00000200,01000000,0000.21,0000.58,0000.35,0000.51,0000.06,0000.14,0000.20,0000.07,0000.29,19.0,25.4,01.3,00.9,0640.8,31.1
2021-11-03T03:20:00Z,00000200,01000000,-000.46,0001.07,0000.07,0000.40,0000.18,-000.10,0000.42,0000.44,0000.44,19.1,25.4,01.4,01.0,0640.8,31.1
2021-11-03T03:21:00Z,00000200,01000000,-000.53,0000.26,0000.13,0000.32,0000.09,0000.25,-000.04,0000.25,0000.06,19.2,25.5,01.4,01.0,0640.8,31.1
2021-11-03T03:22:00Z,00000200,01000000,-000.49,0000.48,0000.20,0000.56,0000.16,0000.31,0000.12,0000.02,-000.12,19.2,25.5,01.5,01.0,0640.8,31.1
2021-11-03T03:23:00Z,00000200,01000000,0000.43,0000.55,0000.08,-000.15,-000.40,-000.12,0000.23,0000.15,0000.23,19.2,25.5,01.4,01.0,0640.8,31.1
2021-11-03T03:24:00Z,00000200,01000000,0000.94,0000.21,0000.17,0000.23,-000.05,0000.19,0000.27,0000.11,0000.22,19.2,25.5,01.4,01.0,0640.8,31.1
2021-11-03T03:25:00Z,00000200,01000000,-000.45,0000.08,0000.28,0000.31,0000.11,0000.56,0000.26,0000.13,-000.02,19.2,25.5,01.4,01.0,0640.8,31.1
2021-11-03T03:26:00Z,00000200,01000000,0000.29,0000.02,0000.30,0000.44,-000.02,0000.37,-000.10,0000.56,0000.21,19.1,25.5,01.5,01.0,0640.8,31.1
2021-11-03T03:27:00Z,00000200,01000000,0000.07,0000.53,0000.52,0000.92,-000.02,0000.23,0000.14,-000.37,-000.19,19.1,25.4,01.5,01.0,0640.8,31.1
2021-11-03T03:28:00Z,00000200,01000000,0000.11,0000.44,0000.15,0000.26,-000.22,0000.20,0000.31,0000.29,0000.58,19.0,25.4,01.5,01.0,0640.8,31.1
2021-11-03T03:29:00Z,00000200,01000000,0000.23,0000.32,0000.08,0000.94,-000.22,0000.51,-000.08,-000.09,-000.42,19.0,25.4,01.5,01.0,0640.8,31.1
2021-11-03T03:30:00Z,00000200,01000000,0000.04,0000.26,0000.13,0000.24,-000.22,-000.02,-000.22,0000.33,0000.36,18.9,25.4,01.5,01.0,0640.8,31.1
2021-11-03T03:31:00Z,00000200,01000000,0000.13,0000.43,0000.31,0000.23,0000.25,0000.01,0000.58,0000.24,0000.17,18.9,25.3,01.4,01.0,0640.7,31.1
2021-11-03T03:32:00Z,00000200,01000000,0000.86,0000.39,0000.29,-000.13,0000.02,0000.18,0000.18,-000.10,-000.04,18.8,25.3,01.6,01.1,0640.7,31.0
2021-11-03T03:33:00Z,00000200,01000000,0000.45,0000.27,0000.30,0000.25,0000.02,0000.58,0000.12,0000.54,0000.23,18.8,25.3,01.5,01.0,0640.7,31.0
2021-11-03T03:34:00Z,00000200,01000000,0000.36,0000.26,0000.20,0000.04,-000.13,0000.27,0000.27,-000.13,0000.55,18.8,25.3,01.6,01.1,0640.7,31.1
2021-11-03T03:35:00Z,00000200,01000000,0000.17,0000.33,-000.12,0000.05,-000.17,0000.24,0000.40,0000.21,-000.20,18.9,25.3,01.5,01.0,0640.7,31.1
2021-11-03T03:36:00Z,00000200,01000000,0000.75,0000.42,-000.04,0000.81,-000.17,0000.26,0000.08,0000.49,0000.26,18.9,25.3,01.5,01.0,0640.7,31.1
2021-11-03T03:37:00Z,00000200,01000000,0000.80,0000.20,0000.45,0000.25,0000.34,-000.02,0000.20,-000.22,0000.35,19.0,25.4,01.5,01.0,0640.8,31.1
2021-11-03T03:38:00Z,00000200,01000000,0000.17,0000.25,0000.25,0000.51,0000.15,0000.27,0000.25,0000.66,-000.18,19.1,25.4,01.5,01.0,0640.8,31.1
2021-11-03T03:39:00Z,00000200,01000000,0000.80,0000.26,-000.11,0000.10,0000.02,-000.17,-000.17,-000.56,0000.06,19.1,25.4,01.6,01.1,0640.8,31.1
2021-11-03T03:40:00Z,00000200,01000000,0000.53,0000.12,0000.47,0000.20,0000.12,0000.42,-000.00,0000.02,0000.13,19.0,25.4,01.5,01.0,0640.8,31.1
2021-11-03T03:41:00Z,00000200,01000000,-000.06,0000.05,0000.55,0000.57,-000.04,0000.37,0000.15,0000.41,-000.11,19.0,25.4,01.5,01.0,0640.8,31.1
2021-11-03T03:42:00Z,00000200,01000000,-000.12,0000.12,0000.05,0000.10,0000.09,0000.28,-000.09,-000.04,0000.04,19.0,25.3,01.6,01.1,0640.8,31.1
2021-11-03T03:43:00Z,00000200,01000000,0000.52,0000.49,-000.14,0000.23,-000.19,-000.04,0000.23,0000.12,0000.17,18.9,25.3,01.6,01.1,0640.8,31.1
2021-11-03T03:44:00Z,00000200,01000000,0000.14,0000.28,0000.28,0000.55,0000.14,-000.03,0000.04,0000.03,-000.09,18.9,25.3,01.5,01.0,0640.8,31.1
2021-11-03T03:45:00Z,00000200,01000000,-000.28,0000.20,0000.20,0000.48,-000.14,0000.03,0000.30,0000.30,0000.10,18.8,25.3,01.5,01.0,0640.7,31.1
2021-11-03T03:46:00Z,00000200,01000000,0000.41,0000.51,0000.29,-000.13,-000.08,0000.18,0000.24,0000.19,0000.24,18.8,25.2,01.6,01.0,0640.7,31.1
2021-11-03T03:47:00Z,00000200,01000000,0000.04,0000.39,0000.24,-000.00,-000.09,0000.19,0000.09,0000.08,0000.19,18.7,25.2,01.6,01.1,0640.7,31.1
2021-11-03T03:48:00Z,00000200,01000000,0000.26,0000.09,0000.52,0000.60,-000.08,0000.54,0000.12,0000.13,0000.17,18.7,25.2,01.6,01.1,0640.7,31.1
2021-11-03T03:49:00Z,00000200,01000000,0000.38,0000.49,0000.27,0000.21,0000.09,0000.28,0000.14,-000.06,0000.13,18.7,25.2,01.6,01.1,0640.7,31.1
2021-11-03T03:50:00Z,00000200,01000000,0000.44,0000.09,0000.36,-000.33,-000.05,0000.03,0000.41,0000.36,-000.15,18.8,25.2,01.7,01.1,0640.7,31.1
2021-11-03T03:51:00Z,00000200,01000000,-000.04,0000.32,0000.36,0000.27,0000.02,0000.31,0000.26,0000.09,0000.34,18.9,25.2,01.6,01.1,0640.7,31.1
2021-11-03T03:52:00Z,00000200,01000000,-000.12,0000.37,0000.19,0000.33,-000.03,0000.36,0000.33,0000.60,0000.39,19.0,25.3,01.7,01.2,0640.7,31.1
2021-11-03T03:53:00Z,00000200,01000000,0000.29,0000.31,0000.33,0000.05,-000.06,0000.57,0000.10,0000.29,0000.01,19.1,25.3,01.7,01.2,0640.8,31.1
2021-11-03T03:54:00Z,00000200,01000000,0000.41,0000.48,0000.17,0000.67,-000.12,0000.14,0000.33,0000.26,0000.55,19.2,25.3,01.7,01.2,0640.8,31.2
2021-11-03T03:55:00Z,00000200,01000000,-000.06,0000.26,-000.06,0000.55,-000.21,0000.23,0000.12,0000.59,0000.14,19.2,25.4,01.7,01.2,0640.7,31.2
2021-11-03T03:56:00Z,00000200,00000000,-000.08,0000.53,0000.01,-000.46,-000.14,0000.25,0000.64,-000.23,0000.26,19.2,25.4,01.8,01.2,0640.7,31.1
2021-11-03T03:57:00Z,00000200,40000000,,,,,,,-000.83,-000.65,-000.50,19.2,25.4,01.5,01.0,0640.6,31.1
2021-11-03T03:58:00Z,00000200,61000000,,,,,,,0000.16,0000.51,0000.29,18.9,25.5,01.5,01.0,0639.8,31.1
2021-11-03T03:59:00Z,00000200,20000000,,,,,,,0000.18,0000.18,0000.08,18.9,25.6,01.5,01.0,0639.7,31.1
